Vichy, MO

1:45 PM CST on February 23, 2017 (GMT -0600)
Rolla National

Weather History for KVIH - September, 2013

Change the Weather History Date:

Sunday, September 15, 2013

  Actual Average Record
Temperature  
Mean Temperature 69 °F 68 °F  
Max Temperature 86 °F 79 °F 97 °F (1897)
Min Temperature 52 °F 57 °F 41 °F (2007)
Degree Days  
Heating Degree Days 0 2  
Month to date heating degree days 5 10  
Since 1 July heating degree days 9 13  
Cooling Degree Days 4 5  
Month to date cooling degree days 138 97  
Year to date cooling degree days 1037 1174  
Growing Degree Days 19 (Base 50)    
Moisture  
Dew Point 56 °F    
Average Humidity 67    
Maximum Humidity 93    
Minimum Humidity 40    
Precipitation  
Precipitation 0.17 in 0.15 in 1.68 in (2005)
Month to date precipitation 0.35 2.18  
Year to date precipitation 33.33 31.73  
Sea Level Pressure  
Sea Level Pressure 30.03 in    
Wind  
Wind Speed 8 mph (South)    
Max Wind Speed 17 mph    
Max Gust Speed 22 mph    
Visibility 10 miles    
Events Rain , Thunderstorm    
T = Trace of Precipitation, MM = Missing Value Source: NWS Daily Summary

Daily Weather History Graph

Daily Weather History Graph

Search for Another Location

Airport or City:

Trip Planner

Search our weather history database for the weather conditions in past years. The results will help you decide how hot, cold, wet, or windy it might be!

Date:

Astronomy

Sep. 15, 2013 Rise Set
Actual Time 6:49 AM CDT 7:14 PM CDT
Civil Twilight 6:22 AM CDT 7:41 PM CDT
Nautical Twilight 5:51 AM CDT 8:12 PM CDT
Astronomical Twilight 5:19 AM CDT 8:43 PM CDT
Moon 4:39 PM CDT (9/15) 2:30 AM CDT (9/15)
Length of Visible Light 13h 18m
Length of Day
12h 25m
Waxing Gibbous, 82% of the Moon is Illuminated
Sep 15
Waxing Gibbous
Sep 19
Full
Sep 26
Last Quarter
Oct 4
New
Oct 11
First Quarter

Hourly Weather History & Observations

Time (CDT) Temp. Heat Index Dew Point Humidity Pressure Visibility Wind Dir Wind Speed Gust Speed Precip Events Conditions
12:53 AM 57.9 °F - 46.9 °F 67% 30.01 in 10.0 mi SSE 6.9 mph - N/A   Clear
1:53 AM 59.0 °F - 48.0 °F 67% 30.01 in 10.0 mi South 8.1 mph - N/A   Clear
2:53 AM 54.0 °F - 46.9 °F 77% 30.01 in 10.0 mi SSW 5.8 mph - N/A   Clear
3:53 AM 54.0 °F - 46.9 °F 77% 30.01 in 10.0 mi South 6.9 mph - N/A   Clear
4:53 AM 57.0 °F - 46.9 °F 69% 30.01 in 10.0 mi South 9.2 mph - N/A   Clear
5:53 AM 57.9 °F - 46.9 °F 67% 30.01 in 10.0 mi South 9.2 mph - N/A   Clear
6:53 AM 57.0 °F - 46.0 °F 67% 30.02 in 10.0 mi South 9.2 mph - N/A   Clear
7:53 AM 61.0 °F - 46.9 °F 60% 30.04 in 10.0 mi South 13.8 mph 20.7 mph N/A   Scattered Clouds
8:53 AM 63.0 °F - 48.0 °F 58% 30.03 in 10.0 mi SSW 13.8 mph 21.9 mph N/A   Clear
9:53 AM 69.1 °F - 48.9 °F 49% 30.04 in 10.0 mi SSW 16.1 mph 21.9 mph N/A   Clear
10:53 AM 73.0 °F - 51.1 °F 46% 30.04 in 10.0 mi SSW 9.2 mph - N/A   Clear
11:53 AM 77.0 °F - 53.1 °F 43% 30.04 in 10.0 mi South 10.4 mph - N/A   Scattered Clouds
12:53 PM 79.0 °F - 55.0 °F 44% 30.03 in 10.0 mi WSW 5.8 mph - N/A   Scattered Clouds
1:53 PM 81.0 °F 81.0 °F 57.0 °F 44% 30.02 in 10.0 mi South 6.9 mph - N/A   Mostly Cloudy
2:53 PM 84.0 °F 83.5 °F 57.9 °F 41% 30.01 in 10.0 mi SSW 5.8 mph - N/A   Partly Cloudy
3:53 PM 82.9 °F 82.6 °F 57.9 °F 42% 30.00 in 10.0 mi Variable 5.8 mph - N/A   Clear
4:53 PM 82.9 °F 83.2 °F 60.1 °F 46% 30.00 in 10.0 mi SW 5.8 mph - N/A   Partly Cloudy
5:53 PM 81.0 °F 81.7 °F 61.0 °F 50% 29.99 in 10.0 mi South 5.8 mph - N/A   Partly Cloudy
6:23 PM 80.6 °F 81.5 °F 60.8 °F 51% 30.04 in 10.0 mi WSW 3.5 mph - N/A Thunderstorm Partly Cloudy
6:38 PM 78.8 °F - 60.8 °F 54% 30.02 in 10.0 mi South 5.8 mph - N/A   Mostly Cloudy
6:53 PM 77.0 °F - 62.1 °F 60% 29.99 in 10.0 mi South 4.6 mph - 0.00 in   Mostly Cloudy
7:42 PM 69.8 °F - 66.2 °F 88% 30.04 in 10.0 mi NNE 4.6 mph - 0.01 in Thunderstorm Overcast
7:53 PM 70.0 °F - 66.9 °F 90% 30.02 in 10.0 mi ENE 3.5 mph - 0.01 in   Mostly Cloudy
8:53 PM 68.0 °F - 66.0 °F 93% 30.05 in 10.0 mi NNE 6.9 mph - 0.00 in   Mostly Cloudy
9:53 PM 66.9 °F - 64.9 °F 93% 30.06 in 10.0 mi NNE 4.6 mph - N/A   Clear
10:53 PM 66.9 °F - 64.9 °F 93% 30.09 in 10.0 mi NNE 4.6 mph - N/A   Overcast
11:53 PM 66.0 °F - 66.0 °F 100% 30.09 in 4.0 mi NNE 8.1 mph - 0.10 in Rain Light Rain